Overview Statistics Trail Chart Weather Telemetry Raw packets
 

This is the latest recevied weather packets stored in our database for station/object DN9CHO-13. If no packets are shown the sender has not sent any weather packets the latest 10 day(s).

<< 53 54 55 56 57 58 >>
Time Temp. Humidity Pressure Rain* Wind** Luminosity Snow
1787765425 23.33° C 72% 1016 hPa 0 mm - 3 W/m² -
1787764822 23.33° C 72% 1016.1 hPa 0 mm - 3 W/m² -
1787764218 23.33° C 71% 1016.1 hPa 0 mm - 4 W/m² -
1787763634 23.33° C 71% 1016.2 hPa 0 mm - 5 W/m² -
1787763032 23.89° C 70% 1016.2 hPa 0 mm - 5 W/m² -
1787762427 23.89° C 70% 1016.2 hPa 0 mm - 6 W/m² -
1787761823 23.89° C 70% 1016.3 hPa 0 mm - 9 W/m² -
1787761220 23.89° C 69% 1016.3 hPa 0 mm - 8 W/m² -
1787760616 23.89° C 69% 1016.5 hPa 0 mm - 10 W/m² -
1787760033 23.89° C 69% 1016.4 hPa 0 mm - 10 W/m² -
1787759429 23.89° C 67% 1016.4 hPa 0 mm - 9 W/m² -
1787758825 23.89° C 67% 1016.6 hPa 0 mm - 9 W/m² -
1787758226 23.89° C 68% 1016.4 hPa 0 mm - 7 W/m² -
1787757618 24.44° C 67% 1016.8 hPa 0 mm - 7 W/m² -
1787757035 24.44° C 65% 1016.7 hPa 0 mm - 7 W/m² -
1787756431 24.44° C 67% 1016.8 hPa 0 mm - 7 W/m² -
1787755827 23.89° C 67% 1016.9 hPa 0 mm - 8 W/m² -
1787755224 23.89° C 67% 1016.9 hPa 0 mm - 8 W/m² -
1787754620 24.44° C 67% 1017 hPa 0 mm - 10 W/m² -
1787754017 24.44° C 66% 1017 hPa 0 mm - 12 W/m² -
1787753433 24.44° C 67% 1017.1 hPa 0 mm - 35 W/m² -
1787752829 23.89° C 68% 1017.2 hPa 0 mm - 15 W/m² -
1787752226 23.89° C 69% 1017.3 hPa 0 mm - 11 W/m² -
1787751622 24.44° C 65% 1017.5 hPa 0 mm - 12 W/m² -
1787751019 23.89° C 68% 1017.5 hPa 0 mm - 12 W/m² -

* Rain latest hour (hover to see other rain measurements)
** Current wind speed in m/s (hover to see current wind gust speed)